User: anonymous   Login
Location: Brivio
(45.7333°N, 9.4500°E)
Time: 21:40:59
(UTC+00:00)
Language:

STARLINK-36 - Orbit

View from above orbital plane
View from above orbital plane
View from above satellite
View from above satellite

Ground track
Ground track

The orbit data is extracted from the following two-line orbital elements,

1 44250U 19029R   19346.13325851  .00005156  00000-0  31262-3 0  9991
2 44250  53.0012 344.5708 0001071 122.4319 237.6776 15.12134700 30566
Epoch (UTC): 12 December 2019 03:11:53
Eccentricity: 0.0001071
inclination: 53.0012°
perigee height: 529 km
apogee height: 530 km
right ascension of ascending node: 344.5708°
argument of perigee: 122.4319°
revolutions per day: 15.12134700
mean anomaly at epoch: 237.6776°
orbit number at epoch: 3056

The dashed part of the orbit path shows where the satellite is in the earth's shadow,  

DLR